User: anonymous   Login
Location: Unspecified
(0.0000°N, 0.0000°E)
Time: 17:57:20
(UTC+00:00)
Language:

LYNK TOWER 4 - Orbit

View from above orbital plane
View from above orbital plane
View from above satellite
View from above satellite

Ground track
Ground track

The orbit is defined by the following mean orbital elements,

1 55034U          26101.46346073 +.00000000 +00000-0 +19803-3 0 00007
2 55034  97.3264 161.0473 0008219  11.0376 349.1044 15.32448979    07
Epoch (UTC): 11 April 2026 11:07:23
Eccentricity: 0.0008219
inclination: 97.3264°
perigee height: 463 km
apogee height: 474 km
right ascension of ascending node: 161.0473°
argument of perigee: 11.0376°
revolutions per day: 15.32448979
mean anomaly at epoch: 349.1044°

The dashed part of the orbit path shows where the satellite is in the earth's shadow,  

DLR